Location: *
(38.4303°S, 157.0822°W)
Time: 16:52:25
(UTC+00:00)

DMSP B5D2-2 - Pass Details

Date: 06 August 2024
Orbit: 787 x 802 km, 98.3° (Epoch: 06 September)

Event Time Altitude Azimuth Distance (km) Brightness Sun altitude
Rises 16:18:45 0° 184° (S) 3,350 7.2 -13.1°
Reaches altitude 10° 16:21:42 10° 200° (SSW) 2,409 6.3 -12.5°
Maximum altitude 16:25:23 19° 244° (WSW) 1,829 5.4 -11.8°
Drops below altitude 10° 16:29:02 10° 288° (WNW) 2,384 6.0 -11.1°
Enters shadow 16:29:22 - 291° (WNW) 2,477 6.1 -11.0°
